Year,Month,Day,Hour,Minute,Value (Times are PST for temperature in C)
2014,08,11,00,00,22.00
2014,08,11,00,01,22.00
2014,08,11,00,02,21.90
2014,08,11,00,03,21.90
2014,08,11,00,04,21.90
2014,08,11,00,05,21.90
2014,08,11,00,06,21.90
2014,08,11,00,07,21.90
2014,08,11,00,08,21.90
2014,08,11,00,09,21.90
2014,08,11,00,10,21.90
2014,08,11,00,11,21.80
2014,08,11,00,12,21.80
2014,08,11,00,13,21.80
2014,08,11,00,14,21.70
2014,08,11,00,15,21.70
2014,08,11,00,16,21.70
2014,08,11,00,17,21.60
2014,08,11,00,18,21.60
2014,08,11,00,19,21.50
2014,08,11,00,20,21.50
2014,08,11,00,21,21.40
2014,08,11,00,22,21.40
2014,08,11,00,23,21.40
2014,08,11,00,24,21.40
2014,08,11,00,25,21.30
2014,08,11,00,26,21.30
2014,08,11,00,27,21.30
2014,08,11,00,28,21.20
2014,08,11,00,29,21.20
2014,08,11,00,30,21.20
2014,08,11,00,31,21.10
2014,08,11,00,32,21.10
2014,08,11,00,33,21.10
2014,08,11,00,34,21.00
2014,08,11,00,35,21.00
2014,08,11,00,36,20.90
2014,08,11,00,37,20.90
2014,08,11,00,38,20.90
2014,08,11,00,39,20.80
2014,08,11,00,40,20.80
2014,08,11,00,41,20.80
2014,08,11,00,42,20.80
2014,08,11,00,43,20.80
2014,08,11,00,44,20.70
2014,08,11,00,45,20.70
2014,08,11,00,46,20.70
2014,08,11,00,47,20.70
2014,08,11,00,48,20.70
2014,08,11,00,49,20.70
2014,08,11,00,50,20.70
2014,08,11,00,51,20.60
2014,08,11,00,52,20.60
2014,08,11,00,53,20.60
2014,08,11,00,54,20.60
2014,08,11,00,55,20.60
2014,08,11,00,56,20.60
2014,08,11,00,57,20.50
2014,08,11,00,58,20.50
2014,08,11,00,59,20.50
2014,08,11,01,00,20.40
2014,08,11,01,01,20.40
2014,08,11,01,02,20.40
2014,08,11,01,03,20.40
2014,08,11,01,04,20.40
2014,08,11,01,05,20.40
2014,08,11,01,06,20.40
2014,08,11,01,07,20.40
2014,08,11,01,08,20.30
2014,08,11,01,09,20.30
2014,08,11,01,10,20.30
2014,08,11,01,11,20.30
2014,08,11,01,12,20.30
2014,08,11,01,13,20.30
2014,08,11,01,14,20.30
2014,08,11,01,15,20.30
2014,08,11,01,16,20.30
2014,08,11,01,17,20.30
2014,08,11,01,18,20.30
2014,08,11,01,19,20.40
2014,08,11,01,20,20.40
2014,08,11,01,21,20.30
2014,08,11,01,22,20.30
2014,08,11,01,23,20.30
2014,08,11,01,24,20.30
2014,08,11,01,25,20.30
2014,08,11,01,26,20.20
2014,08,11,01,27,20.20
2014,08,11,01,28,20.20
2014,08,11,01,29,20.10
2014,08,11,01,30,20.10
2014,08,11,01,31,20.00
2014,08,11,01,32,20.00
2014,08,11,01,33,20.00
2014,08,11,01,34,19.90
2014,08,11,01,35,19.90
2014,08,11,01,36,19.90
2014,08,11,01,37,19.80
2014,08,11,01,38,19.80
2014,08,11,01,39,19.80
2014,08,11,01,40,19.80
2014,08,11,01,41,19.80
2014,08,11,01,42,19.70
2014,08,11,01,43,19.70
2014,08,11,01,44,19.70
2014,08,11,01,45,19.70
2014,08,11,01,46,19.60
2014,08,11,01,47,19.60
2014,08,11,01,48,19.60
2014,08,11,01,49,19.50
2014,08,11,01,50,19.50
2014,08,11,01,51,19.50
2014,08,11,01,52,19.40
2014,08,11,01,53,19.40
2014,08,11,01,54,19.40
2014,08,11,01,55,19.40
2014,08,11,01,56,19.40
2014,08,11,01,57,19.40
2014,08,11,01,58,19.40
2014,08,11,01,59,19.30
2014,08,11,02,00,19.30
2014,08,11,02,01,19.30
2014,08,11,02,02,19.30
2014,08,11,02,03,19.20
2014,08,11,02,04,19.20
2014,08,11,02,05,19.20
2014,08,11,02,06,19.20
2014,08,11,02,07,19.20
2014,08,11,02,08,19.20
2014,08,11,02,09,19.10
2014,08,11,02,10,19.10
2014,08,11,02,11,19.10
2014,08,11,02,12,19.10
2014,08,11,02,13,19.10
2014,08,11,02,14,19.00
2014,08,11,02,15,19.00
2014,08,11,02,16,19.00
2014,08,11,02,17,18.90
2014,08,11,02,18,18.90
2014,08,11,02,19,18.90
2014,08,11,02,20,18.90
2014,08,11,02,21,19.00
2014,08,11,02,22,19.00
2014,08,11,02,23,19.00
2014,08,11,02,24,19.00
2014,08,11,02,25,19.00
2014,08,11,02,26,18.90
2014,08,11,02,27,18.90
2014,08,11,02,28,18.90
2014,08,11,02,29,18.90
2014,08,11,02,30,18.90
2014,08,11,02,31,18.80
2014,08,11,02,32,18.80
2014,08,11,02,33,18.80
2014,08,11,02,34,18.80
2014,08,11,02,35,18.70
2014,08,11,02,36,18.70
2014,08,11,02,37,18.70
2014,08,11,02,38,18.70
2014,08,11,02,39,18.70
2014,08,11,02,40,18.60
2014,08,11,02,41,18.60
2014,08,11,02,42,18.60
2014,08,11,02,43,18.60
2014,08,11,02,44,18.60
2014,08,11,02,45,18.60
2014,08,11,02,46,18.60
2014,08,11,02,47,18.60
2014,08,11,02,48,18.60
2014,08,11,02,49,18.60
2014,08,11,02,50,18.60
2014,08,11,02,51,18.60
2014,08,11,02,52,18.60
2014,08,11,02,53,18.50
2014,08,11,02,54,18.50
2014,08,11,02,55,18.50
2014,08,11,02,56,18.50
2014,08,11,02,57,18.50
2014,08,11,02,58,18.50
2014,08,11,02,59,18.40
2014,08,11,03,00,18.40
2014,08,11,03,01,18.40
2014,08,11,03,02,18.40
2014,08,11,03,06,18.40
2014,08,11,03,07,18.40
2014,08,11,03,08,18.40
2014,08,11,03,09,18.40
2014,08,11,03,10,18.30
2014,08,11,03,11,18.30
2014,08,11,03,12,18.30
2014,08,11,03,13,18.30
2014,08,11,03,14,18.20
2014,08,11,03,15,18.20
2014,08,11,03,16,18.20
2014,08,11,03,17,18.10
2014,08,11,03,18,18.10
2014,08,11,03,19,18.10
2014,08,11,03,20,18.00
2014,08,11,03,21,18.00
2014,08,11,03,22,18.00
2014,08,11,03,23,18.00
2014,08,11,03,24,18.00
2014,08,11,03,25,18.00
2014,08,11,03,26,18.00
2014,08,11,03,27,18.00
2014,08,11,03,28,18.00
2014,08,11,03,29,18.00
2014,08,11,03,30,18.00
2014,08,11,03,31,17.90
2014,08,11,03,32,17.90
2014,08,11,03,33,17.90
2014,08,11,03,34,17.90
2014,08,11,03,35,17.90
2014,08,11,03,36,17.90
2014,08,11,03,37,17.90
2014,08,11,03,38,17.90
2014,08,11,03,39,17.90
2014,08,11,03,40,17.90
2014,08,11,03,41,17.90
2014,08,11,03,42,17.90
2014,08,11,03,43,17.90
2014,08,11,03,44,17.90
2014,08,11,03,45,17.90
2014,08,11,03,46,17.90
2014,08,11,03,47,17.90
2014,08,11,03,48,17.90
2014,08,11,03,49,17.90
2014,08,11,03,50,17.90
2014,08,11,03,51,17.90
2014,08,11,03,52,17.80
2014,08,11,03,53,17.80
2014,08,11,03,54,17.80
2014,08,11,03,55,17.80
2014,08,11,03,56,17.80
2014,08,11,03,57,17.80
2014,08,11,03,58,17.80
2014,08,11,03,59,17.70
2014,08,11,04,00,17.70
2014,08,11,04,01,17.70
2014,08,11,04,02,17.70
2014,08,11,04,03,17.60
2014,08,11,04,04,17.60
2014,08,11,04,05,17.60
2014,08,11,04,06,17.50
2014,08,11,04,07,17.50
2014,08,11,04,08,17.40
2014,08,11,04,09,17.40
2014,08,11,04,10,17.40
2014,08,11,04,11,17.40
2014,08,11,04,12,17.40
2014,08,11,04,13,17.40
2014,08,11,04,14,17.40
2014,08,11,04,15,17.30
2014,08,11,04,16,17.30
2014,08,11,04,17,17.30
2014,08,11,04,18,17.30
2014,08,11,04,19,17.30
2014,08,11,04,20,17.30
2014,08,11,04,21,17.30
2014,08,11,04,22,17.30
2014,08,11,04,23,17.30
2014,08,11,04,24,17.30
2014,08,11,04,25,17.30
2014,08,11,04,26,17.30
2014,08,11,04,27,17.30
2014,08,11,04,28,17.30
2014,08,11,04,29,17.40
2014,08,11,04,30,17.40
2014,08,11,04,31,17.40
2014,08,11,04,32,17.40
2014,08,11,04,33,17.40
2014,08,11,04,34,17.40
2014,08,11,04,35,17.40
2014,08,11,04,36,17.40
2014,08,11,04,37,17.40
2014,08,11,04,38,17.40
2014,08,11,04,39,17.30
2014,08,11,04,40,17.30
2014,08,11,04,41,17.30
2014,08,11,04,42,17.30
2014,08,11,04,43,17.30
2014,08,11,04,44,17.30
2014,08,11,04,45,17.30
2014,08,11,04,46,17.30
2014,08,11,04,47,17.20
2014,08,11,04,48,17.20
2014,08,11,04,49,17.20
2014,08,11,04,50,17.20
2014,08,11,04,51,17.20
2014,08,11,04,52,17.20
2014,08,11,04,53,17.20
2014,08,11,04,54,17.20
2014,08,11,04,55,17.10
2014,08,11,04,56,17.10
2014,08,11,04,57,17.10
2014,08,11,04,58,17.10
2014,08,11,04,59,17.10
2014,08,11,05,00,17.00
2014,08,11,05,01,17.00
2014,08,11,05,02,17.00
2014,08,11,05,03,16.90
2014,08,11,05,04,16.90
2014,08,11,05,05,16.90
2014,08,11,05,06,16.90
2014,08,11,05,07,16.90
2014,08,11,05,08,16.90
2014,08,11,05,09,16.90
2014,08,11,05,10,16.80
2014,08,11,05,11,16.80
2014,08,11,05,12,16.80
2014,08,11,05,13,16.80
2014,08,11,05,14,16.80
2014,08,11,05,15,16.70
2014,08,11,05,16,16.70
2014,08,11,05,17,16.70
2014,08,11,05,18,16.70
2014,08,11,05,19,16.70
2014,08,11,05,20,16.70
2014,08,11,05,21,16.60
2014,08,11,05,22,16.60
2014,08,11,05,23,16.60
2014,08,11,05,24,16.60
2014,08,11,05,25,16.60
2014,08,11,05,26,16.60
2014,08,11,05,27,16.50
2014,08,11,05,28,16.50
2014,08,11,05,29,16.50
2014,08,11,05,30,16.50
2014,08,11,05,31,16.50
2014,08,11,05,32,16.40
2014,08,11,05,33,16.40
2014,08,11,05,34,16.40
2014,08,11,05,35,16.40
2014,08,11,05,36,16.40
2014,08,11,05,37,16.30
2014,08,11,05,38,16.30
2014,08,11,05,39,16.30
2014,08,11,05,40,16.30
2014,08,11,05,41,16.30
2014,08,11,05,42,16.20
2014,08,11,05,43,16.20
2014,08,11,05,44,16.20
2014,08,11,05,45,16.20
2014,08,11,05,46,16.20
2014,08,11,05,47,16.20
2014,08,11,05,48,16.20
2014,08,11,05,49,16.20
2014,08,11,05,50,16.20
2014,08,11,05,51,16.20
2014,08,11,05,52,16.20
2014,08,11,05,53,16.20
2014,08,11,05,54,16.30
2014,08,11,05,55,16.30
2014,08,11,05,56,16.30
2014,08,11,05,57,16.40
2014,08,11,05,58,16.40
2014,08,11,05,59,16.40
2014,08,11,06,00,16.40
2014,08,11,06,01,16.50
2014,08,11,06,02,16.50
2014,08,11,06,03,16.50
2014,08,11,06,04,16.50
2014,08,11,06,05,16.50
2014,08,11,06,06,16.60
2014,08,11,06,07,16.60
2014,08,11,06,08,16.60
2014,08,11,06,09,16.60
2014,08,11,06,10,16.60
2014,08,11,06,11,16.60
2014,08,11,06,12,16.60
2014,08,11,06,13,16.60
2014,08,11,06,14,16.60
2014,08,11,06,15,16.50
2014,08,11,06,16,16.50
2014,08,11,06,17,16.50
2014,08,11,06,18,16.40
2014,08,11,06,19,16.40
2014,08,11,06,20,16.40
2014,08,11,06,21,16.40
2014,08,11,06,22,16.40
2014,08,11,06,23,16.30
2014,08,11,06,24,16.30
2014,08,11,06,25,16.30
2014,08,11,06,26,16.30
2014,08,11,06,27,16.30
2014,08,11,06,28,16.30
2014,08,11,06,29,16.20
2014,08,11,06,30,16.20
2014,08,11,06,31,16.20
2014,08,11,06,32,16.20
2014,08,11,06,33,16.20
2014,08,11,06,34,16.20
2014,08,11,06,35,16.10
2014,08,11,06,36,16.10
2014,08,11,06,37,16.10
2014,08,11,06,38,16.10
2014,08,11,06,39,16.10
2014,08,11,06,40,16.10
2014,08,11,06,41,16.00
2014,08,11,06,42,16.00
2014,08,11,06,43,16.00
2014,08,11,06,44,16.00
2014,08,11,06,45,15.90
2014,08,11,06,46,15.90
2014,08,11,06,47,15.90
2014,08,11,06,48,15.90
2014,08,11,06,49,15.90
2014,08,11,06,50,15.90
2014,08,11,06,51,15.80
2014,08,11,06,52,15.80
2014,08,11,06,53,15.80
2014,08,11,06,54,15.80
2014,08,11,06,55,15.80
2014,08,11,06,56,15.80
2014,08,11,06,57,15.80
2014,08,11,06,58,15.80
2014,08,11,06,59,15.80
2014,08,11,07,00,15.80
2014,08,11,07,01,15.80
2014,08,11,07,02,15.80
2014,08,11,07,03,15.80
2014,08,11,07,04,15.80
2014,08,11,07,05,15.80
2014,08,11,07,06,15.80
2014,08,11,07,07,15.80
2014,08,11,07,08,15.80
2014,08,11,07,09,15.80
2014,08,11,07,10,15.80
2014,08,11,07,11,15.80
2014,08,11,07,12,15.90
2014,08,11,07,13,15.90
2014,08,11,07,14,15.90
2014,08,11,07,15,15.90
2014,08,11,07,16,15.90
2014,08,11,07,17,16.00
2014,08,11,07,18,16.00
2014,08,11,07,19,16.10
2014,08,11,07,20,16.10
2014,08,11,07,21,16.20
2014,08,11,07,22,16.20
2014,08,11,07,23,16.30
2014,08,11,07,24,16.40
2014,08,11,07,25,16.50
2014,08,11,07,26,16.60
2014,08,11,07,27,16.70
2014,08,11,07,28,16.80
2014,08,11,07,29,16.90
2014,08,11,07,30,17.00
2014,08,11,07,31,17.10
2014,08,11,07,32,17.20
2014,08,11,07,33,17.30
2014,08,11,07,34,17.30
2014,08,11,07,35,17.40
2014,08,11,07,36,17.50
2014,08,11,07,37,17.50
2014,08,11,07,38,17.60
2014,08,11,07,39,17.60
2014,08,11,07,40,17.70
2014,08,11,07,41,17.80
2014,08,11,07,42,17.90
2014,08,11,07,43,18.00
2014,08,11,07,44,18.10
2014,08,11,07,45,18.10
2014,08,11,07,46,18.20
2014,08,11,07,47,18.20
2014,08,11,07,48,18.30
2014,08,11,07,49,18.30
2014,08,11,07,50,18.40
2014,08,11,07,51,18.40
2014,08,11,07,52,18.40
2014,08,11,07,53,18.50
2014,08,11,07,54,18.60
2014,08,11,07,55,18.60
2014,08,11,07,56,18.70
2014,08,11,07,57,18.80
2014,08,11,07,58,18.80
2014,08,11,07,59,18.90
2014,08,11,08,00,19.10
2014,08,11,08,01,19.10
2014,08,11,08,02,19.20
2014,08,11,08,03,19.30
2014,08,11,08,04,19.30
2014,08,11,08,05,19.40
2014,08,11,08,06,19.40
2014,08,11,08,07,19.40
2014,08,11,08,08,19.40
2014,08,11,08,09,19.40
2014,08,11,08,10,19.40
2014,08,11,08,11,19.50
2014,08,11,08,12,19.50
2014,08,11,08,13,19.60
2014,08,11,08,14,19.60
2014,08,11,08,15,19.70
2014,08,11,08,16,19.70
2014,08,11,08,17,19.70
2014,08,11,08,18,19.70
2014,08,11,08,19,19.70
2014,08,11,08,20,19.70
2014,08,11,08,21,19.70
2014,08,11,08,22,19.70
2014,08,11,08,23,19.70
2014,08,11,08,24,19.80
2014,08,11,08,25,19.80
2014,08,11,08,26,19.80
2014,08,11,08,27,19.90
2014,08,11,08,28,19.90
2014,08,11,08,29,20.00
2014,08,11,08,30,20.00
2014,08,11,08,31,20.10
2014,08,11,08,32,20.20
2014,08,11,08,33,20.30
2014,08,11,08,34,20.30
2014,08,11,08,35,20.30
2014,08,11,08,36,20.40
2014,08,11,08,37,20.40
2014,08,11,08,38,20.40
2014,08,11,08,39,20.50
2014,08,11,08,40,20.50
2014,08,11,08,41,20.50
2014,08,11,08,42,20.60
2014,08,11,08,43,20.60
2014,08,11,08,44,20.60
2014,08,11,08,45,20.60
2014,08,11,08,46,20.70
2014,08,11,08,47,20.70
2014,08,11,08,48,20.70
2014,08,11,08,49,20.70
2014,08,11,08,50,20.80
2014,08,11,08,51,20.80
2014,08,11,08,52,20.80
2014,08,11,08,53,20.80
2014,08,11,08,54,20.80
2014,08,11,08,55,20.90
2014,08,11,08,56,20.90
2014,08,11,08,57,20.90
2014,08,11,08,58,20.90
2014,08,11,08,59,20.90
2014,08,11,09,00,21.00
2014,08,11,09,01,21.00
2014,08,11,09,02,21.00
2014,08,11,09,03,21.00
2014,08,11,09,04,21.00
2014,08,11,09,05,21.10
2014,08,11,09,06,21.10
2014,08,11,09,07,21.20
2014,08,11,09,08,21.30
2014,08,11,09,09,21.30
2014,08,11,09,10,21.40
2014,08,11,09,11,21.50
2014,08,11,09,12,21.60
2014,08,11,09,13,21.60
2014,08,11,09,14,21.70
2014,08,11,09,15,21.80
2014,08,11,09,16,21.90
2014,08,11,09,17,22.00
2014,08,11,09,18,22.10
2014,08,11,09,19,22.10
2014,08,11,09,20,22.10
2014,08,11,09,21,22.10
2014,08,11,09,22,22.20
2014,08,11,09,23,22.30
2014,08,11,09,24,22.30
2014,08,11,09,25,22.30
2014,08,11,09,26,22.40
2014,08,11,09,27,22.50
2014,08,11,09,28,22.60
2014,08,11,09,29,22.70
2014,08,11,09,30,22.80
2014,08,11,09,31,22.80
2014,08,11,09,32,22.80
2014,08,11,09,33,22.90
2014,08,11,09,34,22.90
2014,08,11,09,35,22.90
2014,08,11,09,36,22.90
2014,08,11,09,37,22.90
2014,08,11,09,38,23.00
2014,08,11,09,39,23.00
2014,08,11,09,40,23.10
2014,08,11,09,41,23.20
2014,08,11,09,42,23.30
2014,08,11,09,43,23.40
2014,08,11,09,44,23.50
2014,08,11,09,45,23.50
2014,08,11,09,46,23.60
2014,08,11,09,47,23.60
2014,08,11,09,48,23.60
2014,08,11,09,49,23.70
2014,08,11,09,50,23.70
2014,08,11,09,51,23.70
2014,08,11,09,52,23.80
2014,08,11,09,53,23.80
2014,08,11,09,54,23.90
2014,08,11,09,55,23.90
2014,08,11,09,56,24.00
2014,08,11,09,57,24.10
2014,08,11,09,58,24.10
2014,08,11,09,59,24.20
2014,08,11,10,00,24.30
2014,08,11,10,01,24.30
2014,08,11,10,02,24.30
2014,08,11,10,03,24.40
2014,08,11,10,04,24.40
2014,08,11,10,05,24.40
2014,08,11,10,06,24.40
2014,08,11,10,07,24.50
2014,08,11,10,08,24.50
2014,08,11,10,09,24.60
2014,08,11,10,10,24.60
2014,08,11,10,11,24.60
2014,08,11,10,12,24.70
2014,08,11,10,13,24.80
2014,08,11,10,14,24.80
2014,08,11,10,15,24.90
2014,08,11,10,16,24.90
2014,08,11,10,17,24.90
2014,08,11,10,18,24.90
2014,08,11,10,19,24.90
2014,08,11,10,20,25.00
2014,08,11,10,21,25.00
2014,08,11,10,22,25.10
2014,08,11,10,23,25.20
2014,08,11,10,24,25.30
2014,08,11,10,25,25.30
2014,08,11,10,26,25.30
2014,08,11,10,27,25.40
2014,08,11,10,28,25.50
2014,08,11,10,29,25.60
2014,08,11,10,30,25.60
2014,08,11,10,31,25.60
2014,08,11,10,32,25.50
2014,08,11,10,33,25.50
2014,08,11,10,34,25.50
2014,08,11,10,35,25.40
2014,08,11,10,36,25.40
2014,08,11,10,37,25.40
2014,08,11,10,38,25.50
2014,08,11,10,39,25.70
2014,08,11,10,40,25.70
2014,08,11,10,41,25.70
2014,08,11,10,42,25.70
2014,08,11,10,43,25.80
2014,08,11,10,44,25.90
2014,08,11,10,45,26.00
2014,08,11,10,46,26.10
2014,08,11,10,47,26.20
2014,08,11,10,48,26.30
2014,08,11,10,49,26.40
2014,08,11,10,50,26.60
2014,08,11,10,51,26.70
2014,08,11,10,52,26.80
2014,08,11,10,53,27.00
2014,08,11,10,54,27.10
2014,08,11,10,55,27.20
2014,08,11,10,56,27.30
2014,08,11,10,57,27.30
2014,08,11,10,58,27.40
2014,08,11,10,59,27.40
2014,08,11,11,00,27.40
2014,08,11,11,01,27.40
2014,08,11,11,02,27.40
2014,08,11,11,03,27.30
2014,08,11,11,04,27.20
2014,08,11,11,05,27.20
2014,08,11,11,06,27.20
2014,08,11,11,07,27.20
2014,08,11,11,08,27.30
2014,08,11,11,09,27.30
2014,08,11,11,10,27.40
2014,08,11,11,11,27.40
2014,08,11,11,12,27.40
2014,08,11,11,13,27.50
2014,08,11,11,14,27.50
2014,08,11,11,15,27.50
2014,08,11,11,16,27.60
2014,08,11,11,17,27.60
2014,08,11,11,18,27.70
2014,08,11,11,19,27.80
2014,08,11,11,20,27.90
2014,08,11,11,21,27.90
2014,08,11,11,22,28.00
2014,08,11,11,23,28.10
2014,08,11,11,24,28.20
2014,08,11,11,25,28.20
2014,08,11,11,26,28.20
2014,08,11,11,27,28.20
2014,08,11,11,28,28.20
2014,08,11,11,29,28.20
2014,08,11,11,30,28.20
2014,08,11,11,31,28.20
2014,08,11,11,32,28.30
2014,08,11,11,33,28.30
2014,08,11,11,34,28.40
2014,08,11,11,35,28.40
2014,08,11,11,36,28.50
2014,08,11,11,37,28.50
2014,08,11,11,38,28.50
2014,08,11,11,39,28.60
2014,08,11,11,40,28.60
2014,08,11,11,41,28.70
2014,08,11,11,42,28.70
2014,08,11,11,43,28.70
2014,08,11,11,44,28.70
2014,08,11,11,45,28.80
2014,08,11,11,46,28.80
2014,08,11,11,47,28.90
2014,08,11,11,48,29.00
2014,08,11,11,49,29.10
2014,08,11,11,50,29.10
2014,08,11,11,51,29.20
2014,08,11,11,52,29.30
2014,08,11,11,53,29.30
2014,08,11,11,54,29.30
2014,08,11,11,55,29.30
2014,08,11,11,56,29.30
2014,08,11,11,57,29.30
2014,08,11,11,58,29.30
2014,08,11,11,59,29.30
2014,08,11,12,00,29.30
2014,08,11,12,01,29.30
2014,08,11,12,02,29.40
2014,08,11,12,03,29.50
2014,08,11,12,04,29.50
2014,08,11,12,05,29.60
2014,08,11,12,06,29.60
2014,08,11,12,07,29.60
2014,08,11,12,08,29.70
2014,08,11,12,09,29.70
2014,08,11,12,10,29.70
2014,08,11,12,11,29.80
2014,08,11,12,12,29.80
2014,08,11,12,13,29.90
2014,08,11,12,14,29.90
2014,08,11,12,15,29.90
2014,08,11,12,16,30.00
2014,08,11,12,17,30.10
2014,08,11,12,18,30.10
2014,08,11,12,19,30.10
2014,08,11,12,20,30.00
2014,08,11,12,21,30.00
2014,08,11,12,22,30.10
2014,08,11,12,23,30.20
2014,08,11,12,24,30.30
2014,08,11,12,25,30.40
2014,08,11,12,26,30.40
2014,08,11,12,27,30.40
2014,08,11,12,28,30.50
2014,08,11,12,29,30.50
2014,08,11,12,30,30.60
2014,08,11,12,31,30.60
2014,08,11,12,32,30.60
2014,08,11,12,33,30.50
2014,08,11,12,34,30.50
2014,08,11,12,35,30.60
2014,08,11,12,36,30.70
2014,08,11,12,37,30.70
2014,08,11,12,38,30.70
2014,08,11,12,39,30.70
2014,08,11,12,40,30.80
2014,08,11,12,41,30.80
2014,08,11,12,42,30.80
2014,08,11,12,43,30.90
2014,08,11,12,44,31.00
2014,08,11,12,45,31.10
2014,08,11,12,46,31.20
2014,08,11,12,47,31.30
2014,08,11,12,48,31.40
2014,08,11,12,49,31.40
2014,08,11,12,50,31.40
2014,08,11,12,51,31.50
2014,08,11,12,52,31.60
2014,08,11,12,53,31.60
2014,08,11,12,54,31.60
2014,08,11,12,55,31.50
2014,08,11,12,56,31.50
2014,08,11,12,57,31.60
2014,08,11,12,58,31.60
2014,08,11,12,59,31.70
2014,08,11,13,00,31.60
2014,08,11,13,01,31.70
2014,08,11,13,02,31.70
2014,08,11,13,03,31.80
2014,08,11,13,04,31.80
2014,08,11,13,05,31.90
2014,08,11,13,06,31.90
2014,08,11,13,07,31.90
2014,08,11,13,08,31.90
2014,08,11,13,09,32.00
2014,08,11,13,10,32.00
2014,08,11,13,11,32.10
2014,08,11,13,12,32.20
2014,08,11,13,13,32.30
2014,08,11,13,14,32.30
2014,08,11,13,15,32.30
2014,08,11,13,16,32.40
2014,08,11,13,17,32.40
2014,08,11,13,18,32.50
2014,08,11,13,19,32.60
2014,08,11,13,20,32.70
2014,08,11,13,21,32.80
2014,08,11,13,22,32.90
2014,08,11,13,23,33.00
2014,08,11,13,24,33.00
2014,08,11,13,25,33.10
2014,08,11,13,26,33.20
2014,08,11,13,27,33.20
2014,08,11,13,28,33.20
2014,08,11,13,29,33.20
2014,08,11,13,30,33.10
2014,08,11,13,31,33.10
2014,08,11,13,32,33.00
2014,08,11,13,33,33.10
2014,08,11,13,34,33.10
2014,08,11,13,35,33.10
2014,08,11,13,36,33.10
2014,08,11,13,37,33.20
2014,08,11,13,38,33.20
2014,08,11,13,39,33.30
2014,08,11,13,40,33.40
2014,08,11,13,41,33.50
2014,08,11,13,42,33.60
2014,08,11,13,43,33.60
2014,08,11,13,44,33.70
2014,08,11,13,45,33.80
2014,08,11,13,46,33.90
2014,08,11,13,47,34.10
2014,08,11,13,48,34.20
2014,08,11,13,49,34.30
2014,08,11,13,50,34.30
2014,08,11,13,51,34.40
2014,08,11,13,52,34.40
2014,08,11,13,53,34.30
2014,08,11,13,54,34.30
2014,08,11,13,55,34.20
2014,08,11,13,56,34.20
2014,08,11,13,57,34.20
2014,08,11,13,58,34.20
2014,08,11,13,59,34.20
2014,08,11,14,00,34.30
2014,08,11,14,01,34.30
2014,08,11,14,02,34.40
2014,08,11,14,03,34.50
2014,08,11,14,04,34.60
2014,08,11,14,05,34.70
2014,08,11,14,06,34.80
2014,08,11,14,07,34.80
2014,08,11,14,08,34.80
2014,08,11,14,09,34.80
2014,08,11,14,10,34.80
2014,08,11,14,11,34.70
2014,08,11,14,12,34.70
2014,08,11,14,13,34.60
2014,08,11,14,14,34.60
2014,08,11,14,15,34.60
2014,08,11,14,16,34.70
2014,08,11,14,17,34.80
2014,08,11,14,18,34.80
2014,08,11,14,19,34.80
2014,08,11,14,20,34.90
2014,08,11,14,21,35.00
2014,08,11,14,22,35.10
2014,08,11,14,23,35.10
2014,08,11,14,24,35.10
2014,08,11,14,25,35.10
2014,08,11,14,26,35.10
2014,08,11,14,27,35.10
2014,08,11,14,28,35.10
2014,08,11,14,29,35.10
2014,08,11,14,30,35.10
2014,08,11,14,31,35.10
2014,08,11,14,32,35.10
2014,08,11,14,33,35.10
2014,08,11,14,34,35.10
2014,08,11,14,35,35.10
2014,08,11,14,36,35.20
2014,08,11,14,37,35.20
2014,08,11,14,38,35.10
2014,08,11,14,39,34.90
2014,08,11,14,40,34.70
2014,08,11,14,41,34.50
2014,08,11,14,42,34.40
2014,08,11,14,43,34.40
2014,08,11,14,44,34.40
2014,08,11,14,45,34.50
2014,08,11,14,46,34.60
2014,08,11,14,47,34.60
2014,08,11,14,48,34.70
2014,08,11,14,49,34.70
2014,08,11,14,50,34.80
2014,08,11,14,51,34.80
2014,08,11,14,52,34.90
2014,08,11,14,53,35.00
2014,08,11,14,54,35.00
2014,08,11,14,55,35.10
2014,08,11,14,56,35.10
2014,08,11,14,57,35.00
2014,08,11,14,58,34.90
2014,08,11,14,59,34.80
2014,08,11,15,00,34.70
2014,08,11,15,01,34.60
2014,08,11,15,02,34.40
2014,08,11,15,03,34.20
2014,08,11,15,04,34.10
2014,08,11,15,05,34.10
2014,08,11,15,06,34.10
2014,08,11,15,07,34.10
2014,08,11,15,08,34.10
2014,08,11,15,09,34.20
2014,08,11,15,10,34.20
2014,08,11,15,11,34.30
2014,08,11,15,12,34.30
2014,08,11,15,13,34.30
2014,08,11,15,14,34.20
2014,08,11,15,15,34.10
2014,08,11,15,16,34.10
2014,08,11,15,17,34.10
2014,08,11,15,18,34.10
2014,08,11,15,19,34.20
2014,08,11,15,20,34.30
2014,08,11,15,21,34.40
2014,08,11,15,22,34.40
2014,08,11,15,23,34.50
2014,08,11,15,24,34.60
2014,08,11,15,25,34.50
2014,08,11,15,26,34.50
2014,08,11,15,27,34.60
2014,08,11,15,28,34.60
2014,08,11,15,29,34.60
2014,08,11,15,30,34.60
2014,08,11,15,31,34.60
2014,08,11,15,32,34.60
2014,08,11,15,33,34.70
2014,08,11,15,34,34.60
2014,08,11,15,35,34.60
2014,08,11,15,36,34.60
2014,08,11,15,37,34.60
2014,08,11,15,38,34.70
2014,08,11,15,39,34.80
2014,08,11,15,40,34.90
2014,08,11,15,41,35.00
2014,08,11,15,42,35.10
2014,08,11,15,43,35.20
2014,08,11,15,44,35.20
2014,08,11,15,45,35.30
2014,08,11,15,46,35.30
2014,08,11,15,47,35.30
2014,08,11,15,48,35.30
2014,08,11,15,49,35.30
2014,08,11,15,50,35.40
2014,08,11,15,51,35.40
2014,08,11,15,52,35.40
2014,08,11,15,53,35.40
2014,08,11,15,54,35.40
2014,08,11,15,55,35.50
2014,08,11,15,56,35.50
2014,08,11,15,57,35.50
2014,08,11,15,58,35.40
2014,08,11,15,59,35.40
2014,08,11,16,00,35.40
2014,08,11,16,01,35.40
2014,08,11,16,02,35.40
2014,08,11,16,03,35.40
2014,08,11,16,04,35.40
2014,08,11,16,05,35.40
2014,08,11,16,06,35.50
2014,08,11,16,07,35.60
2014,08,11,16,08,35.60
2014,08,11,16,09,35.70
2014,08,11,16,10,35.70
2014,08,11,16,11,35.70
2014,08,11,16,12,35.70
2014,08,11,16,13,35.70
2014,08,11,16,14,35.70
2014,08,11,16,15,35.70
2014,08,11,16,16,35.70
2014,08,11,16,17,35.80
2014,08,11,16,18,35.90
2014,08,11,16,19,36.00
2014,08,11,16,20,36.10
2014,08,11,16,21,36.10
2014,08,11,16,22,36.10
2014,08,11,16,23,36.10
2014,08,11,16,24,36.10
2014,08,11,16,25,36.10
2014,08,11,16,26,36.10
2014,08,11,16,27,36.00
2014,08,11,16,28,35.90
2014,08,11,16,29,35.90
2014,08,11,16,30,35.80
2014,08,11,16,31,35.80
2014,08,11,16,32,35.80
2014,08,11,16,33,35.80
2014,08,11,16,34,35.80
2014,08,11,16,35,35.80
2014,08,11,16,36,35.80
2014,08,11,16,37,35.80
2014,08,11,16,38,35.90
2014,08,11,16,39,35.90
2014,08,11,16,40,35.90
2014,08,11,16,41,35.90
2014,08,11,16,42,35.90
2014,08,11,16,43,36.00
2014,08,11,16,44,36.00
2014,08,11,16,45,36.00
2014,08,11,16,46,35.90
2014,08,11,16,47,35.80
2014,08,11,16,48,35.80
2014,08,11,16,49,35.90
2014,08,11,16,50,35.80
2014,08,11,16,51,35.80
2014,08,11,16,52,35.80
2014,08,11,16,53,35.70
2014,08,11,16,54,35.70
2014,08,11,16,55,35.70
2014,08,11,16,56,35.70
2014,08,11,16,57,35.70
2014,08,11,16,58,35.80
2014,08,11,16,59,35.90
2014,08,11,17,00,36.00
2014,08,11,17,01,36.00
2014,08,11,17,02,36.00
2014,08,11,17,03,36.10
2014,08,11,17,04,36.10
2014,08,11,17,05,36.10
2014,08,11,17,06,36.10
2014,08,11,17,07,36.10
2014,08,11,17,08,36.10
2014,08,11,17,09,36.10
2014,08,11,17,10,36.20
2014,08,11,17,11,36.20
2014,08,11,17,12,36.30
2014,08,11,17,13,36.40
2014,08,11,17,14,36.40
2014,08,11,17,15,36.30
2014,08,11,17,16,36.20
2014,08,11,17,17,36.20
2014,08,11,17,18,36.10
2014,08,11,17,19,36.00
2014,08,11,17,20,36.00
2014,08,11,17,21,36.00
2014,08,11,17,22,36.00